Hourly Data Report for July 19, 2017

ALGONQUIN PARK EAST GATE
ONTARIO

45°32'00.000" N
78°16'00.000" W
397.00 m
6080192
71581
TNK

Download Data

Hourly Data (July 2017)
Hourly Data Report for July 19, 2017
TIME
LST
Temp Definition
°C
Dew Point Definition
°C
Rel Hum Definition
%
Precip. Amount Definition
mm

Wind Dir Definition
10's deg

Wind Spd Definition
km/h
Visibility Definition
km
Stn Press Definition
kPa
Hmdx Definition


Wind Chill Definition


Weather Definition


00:00 14.1 12.2 88 0.0   0   97.02     LegendNANA
01:00 13.3 11.6 90 0.0   0   96.94     LegendNANA
02:00 12.9 11.4 91 0.0   0   96.90     LegendNANA
03:00 12.9 11.4 91 0.0   0   96.88     LegendNANA
04:00 12.7 11.2 91 0.0   0   96.87     LegendNANA
05:00 13.2 11.8 91 0.0   0   96.86     LegendNANA
06:00 14.5 12.9 90 0.0   0   96.89     LegendNANA
07:00 16.1 14.2 89 0.0 0 1   96.87     LegendNANA
08:00 18.9 16.5 86 0.0 25 3   96.88     LegendNANA
09:00 20.7 16.6 78 0.0 21 3   96.86 26   LegendNANA
10:00 21.4 16.8 75 0.0 22 4   96.88 27   LegendNANA
11:00 23.8 17.5 68 0.0 25 7   96.87 29   LegendNANA
12:00 24.9 17.7 65 0.0 26 6   96.85 31   LegendNANA
13:00 24.4 17.4 65 0.0 29 5   96.86 30   LegendNANA
14:00 26.1 16.8 56 0.0 27 6   96.82 31   LegendNANA
15:00 25.2 17.7 63 0.0 34 3   96.79 31   LegendNANA
16:00 26.7 16.7 54 0.0 27 5   96.86 32   LegendNANA
17:00 25.7 15.9 55 0.0 31 3   96.81 30   LegendNANA
18:00 25.3 15.7 55 0.0 27 6   96.82 30   LegendNANA
19:00 23.7 17.3 67 0.0 26 3   96.86 29   LegendNANA
20:00 21.3 17.6 79 0.0 28 2   96.85 27   LegendNANA
21:00 19.4 16.6 84 0.0   0   96.89     LegendNANA
22:00 18.3 16.3 88 0.0 12 2   96.90     LegendNANA
23:00 17.4 15.6 89 0.0 0 1   96.93     LegendNANA

Notes on Data Quality.

Legend

  • E = Estimated
  • M = Missing
  • NA = Not Available*
  • [empty] = Indicates an unobserved value
Date modified: